EN

Hourly Weather Boznowice

Today, 7 May, Friday

Time Temperature Precipitation Wind Pressure Humidity
00:00 +6°C° 0.7 mm 2 mps 731 mmHg 90%
01:00 +6°C° 0.7 mm 2 mps 731 mmHg 92%
02:00 +6°C° 0.1 mm 2 mps 730 mmHg 91%
03:00 +6°C° 0.1 mm 2 mps 729 mmHg 91%
04:00 +6°C° 0.1 mm 2 mps 729 mmHg 91%
05:00 +6°C° 0 mm 4 mps 729 mmHg 89%
06:00 +7°C° 0 mm 5 mps 729 mmHg 87%
07:00 +7°C° 0 mm 6 mps 729 mmHg 85%
08:00 +7°C° 0.1 mm 6 mps 730 mmHg 84%
09:00 +7°C° 0.1 mm 6 mps 731 mmHg 82%
10:00 +7°C° 0.1 mm 6 mps 731 mmHg 81%
11:00 +5°C° 0.1 mm 7 mps 732 mmHg 79%
12:00 +5°C° 0.1 mm 8 mps 732 mmHg 78%
13:00 +5°C° 0.1 mm 8 mps 733 mmHg 77%
14:00 +6°C° 0.1 mm 8 mps 734 mmHg 73%
15:00 +6°C° 0.1 mm 8 mps 734 mmHg 69%
16:00 +6°C° 0.1 mm 8 mps 735 mmHg 66%
17:00 +5°C° 0.1 mm 7 mps 735 mmHg 69%
18:00 +4°C° 0.1 mm 6 mps 736 mmHg 72%
19:00 +4°C° 0.1 mm 4 mps 737 mmHg 75%
20:00 +3°C° 0 mm 4 mps 737 mmHg 78%
21:00 +2°C° 0 mm 3 mps 738 mmHg 81%
22:00 +1°C° 0 mm 3 mps 739 mmHg 85%
23:00 +1°C° 0 mm 3 mps 739 mmHg 86%

Tomorrow, 8 May, Saturday

Time Temperature Precipitation Wind Pressure Humidity
00:00 +1°C° 0 mm 3 mps 739 mmHg 87%
01:00 +1°C° 0 mm 3 mps 740 mmHg 88%
02:00 0°C° 0 mm 3 mps 740 mmHg 89%
03:00 0°C° 0 mm 3 mps 740 mmHg 89%
04:00 0°C° 0 mm 3 mps 740 mmHg 90%
05:00 +2°C° 0 mm 3 mps 741 mmHg 84%
06:00 +3°C° 0 mm 4 mps 741 mmHg 78%
07:00 +5°C° 0 mm 4 mps 742 mmHg 72%
08:00 +6°C° 0.1 mm 4 mps 742 mmHg 66%
09:00 +7°C° 0.1 mm 4 mps 742 mmHg 61%
10:00 +9°C° 0.1 mm 5 mps 742 mmHg 55%
11:00 +10°C° 0 mm 4 mps 742 mmHg 52%
12:00 +11°C° 0 mm 4 mps 742 mmHg 49%
13:00 +12°C° 0 mm 4 mps 742 mmHg 45%
14:00 +12°C° 0 mm 4 mps 742 mmHg 48%
15:00 +11°C° 0 mm 3 mps 742 mmHg 51%
16:00 +11°C° 0 mm 3 mps 742 mmHg 54%
17:00 +10°C° 0 mm 2 mps 742 mmHg 60%
18:00 +9°C° 0 mm 2 mps 741 mmHg 67%
19:00 +8°C° 0 mm 1 mps 741 mmHg 73%
20:00 +7°C° 0 mm 2 mps 741 mmHg 74%
21:00 +6°C° 0 mm 2 mps 742 mmHg 75%
22:00 +4°C° 0 mm 3 mps 742 mmHg 75%
23:00 +4°C° 0 mm 3 mps 741 mmHg 75%

Day after tomorrow, 9 May, Sunday

Time Temperature Precipitation Wind Pressure Humidity
00:00 +4°C° 0 mm 3 mps 741 mmHg 74%
01:00 +4°C° 0 mm 2 mps 741 mmHg 74%
02:00 +3°C° 0 mm 3 mps 741 mmHg 76%
03:00 +3°C° 0 mm 3 mps 740 mmHg 77%
04:00 +3°C° 0 mm 3 mps 740 mmHg 79%
05:00 +5°C° 0 mm 3 mps 740 mmHg 76%
06:00 +8°C° 0 mm 3 mps 740 mmHg 73%
07:00 +10°C° 0 mm 4 mps 740 mmHg 70%
08:00 +12°C° 0 mm 4 mps 740 mmHg 65%
09:00 +14°C° 0 mm 4 mps 740 mmHg 60%
10:00 +16°C° 0 mm 5 mps 740 mmHg 55%
11:00 +17°C° 0 mm 5 mps 739 mmHg 54%
12:00 +17°C° 0 mm 5 mps 739 mmHg 53%
13:00 +19°C° 0 mm 5 mps 739 mmHg 52%
14:00 +19°C° 0 mm 5 mps 739 mmHg 54%
15:00 +19°C° 0 mm 4 mps 739 mmHg 56%
16:00 +19°C° 0 mm 4 mps 738 mmHg 58%
17:00 +17°C° 0 mm 4 mps 738 mmHg 63%
18:00 +14°C° 0 mm 4 mps 738 mmHg 67%
19:00 +12°C° 0 mm 4 mps 738 mmHg 72%
20:00 +12°C° 0 mm 4 mps 738 mmHg 71%
21:00 +11°C° 0 mm 3 mps 738 mmHg 71%
22:00 +10°C° 0 mm 3 mps 738 mmHg 71%
23:00 +9°C° 0 mm 3 mps 737 mmHg 71%

10 May, Monday

Time Temperature Precipitation Wind Pressure Humidity
00:00 +9°C° 0 mm 3 mps 737 mmHg 72%
01:00 +9°C° 0 mm 3 mps 737 mmHg 72%
02:00 +9°C° 0 mm 3 mps 737 mmHg 73%
03:00 +9°C° 0 mm 3 mps 736 mmHg 73%
04:00 +9°C° 0 mm 3 mps 736 mmHg 73%
05:00 +10°C° 0 mm 4 mps 736 mmHg 71%
06:00 +12°C° 0 mm 4 mps 736 mmHg 69%
07:00 +13°C° 0 mm 4 mps 736 mmHg 68%
08:00 +15°C° 0 mm 5 mps 736 mmHg 64%
09:00 +17°C° 0 mm 5 mps 736 mmHg 61%
10:00 +19°C° 0 mm 6 mps 736 mmHg 58%
11:00 +20°C° 0 mm 5 mps 736 mmHg 57%
12:00 +21°C° 0 mm 5 mps 737 mmHg 56%
13:00 +21°C° 0 mm 5 mps 737 mmHg 55%
14:00 +21°C° 0 mm 5 mps 737 mmHg 59%
15:00 +21°C° 0 mm 5 mps 737 mmHg 62%
16:00 +21°C° 0 mm 5 mps 738 mmHg 65%
17:00 +20°C° 0 mm 4 mps 737 mmHg 71%
18:00 +19°C° 0 mm 3 mps 737 mmHg 76%
19:00 +17°C° 0 mm 2 mps 737 mmHg 82%
20:00 +16°C° 0 mm 2 mps 737 mmHg 83%
21:00 +14°C° 0 mm 3 mps 736 mmHg 85%
22:00 +14°C° 0 mm 3 mps 736 mmHg 86%
23:00 +14°C° 0 mm 3 mps 736 mmHg 85%

11 May, Tuesday

Time Temperature Precipitation Wind Pressure Humidity
00:00 +13°C° 0 mm 3 mps 735 mmHg 84%
01:00 +13°C° 0 mm 4 mps 735 mmHg 83%
02:00 +13°C° 0 mm 4 mps 735 mmHg 83%
03:00 +13°C° 0 mm 4 mps 734 mmHg 83%
04:00 +13°C° 0 mm 4 mps 734 mmHg 83%
05:00 +14°C° 0 mm 4 mps 734 mmHg 79%
06:00 +17°C° 0 mm 4 mps 734 mmHg 75%
07:00 +18°C° 0 mm 4 mps 734 mmHg 72%
08:00 +19°C° 0 mm 4 mps 735 mmHg 68%
09:00 +20°C° 0 mm 5 mps 735 mmHg 65%
10:00 +21°C° 0 mm 6 mps 735 mmHg 61%
11:00 +21°C° 0 mm 6 mps 735 mmHg 61%
12:00 +22°C° 0 mm 6 mps 735 mmHg 61%
13:00 +22°C° 0 mm 6 mps 735 mmHg 60%
14:00 +23°C° 0 mm 5 mps 735 mmHg 62%
15:00 +23°C° 0 mm 5 mps 735 mmHg 63%
16:00 +23°C° 0 mm 4 mps 735 mmHg 65%
17:00 +22°C° 0 mm 4 mps 734 mmHg 69%
18:00 +20°C° 0 mm 4 mps 734 mmHg 73%
19:00 +19°C° 0 mm 4 mps 733 mmHg 77%
20:00 +18°C° 0 mm 4 mps 733 mmHg 75%
21:00 +17°C° 0 mm 5 mps 733 mmHg 74%
22:00 +17°C° 0 mm 5 mps 732 mmHg 72%
23:00 +16°C° 0 mm 5 mps 732 mmHg 73%

12 May, Wednesday

Time Temperature Precipitation Wind Pressure Humidity
00:00 +16°C° 0 mm 5 mps 732 mmHg 73%
01:00 +16°C° 0 mm 5 mps 732 mmHg 74%
02:00 +16°C° 0 mm 5 mps 731 mmHg 76%
03:00 +15°C° 0 mm 4 mps 731 mmHg 77%
04:00 +15°C° 0 mm 4 mps 731 mmHg 79%
05:00 +17°C° 0 mm 4 mps 731 mmHg 77%
06:00 +18°C° 0 mm 4 mps 731 mmHg 75%
07:00 +19°C° 0 mm 4 mps 731 mmHg 74%
08:00 +20°C° 0 mm 4 mps 731 mmHg 68%
09:00 +21°C° 0 mm 4 mps 731 mmHg 63%
10:00 +22°C° 0 mm 5 mps 731 mmHg 58%
11:00 +22°C° 0.1 mm 4 mps 731 mmHg 62%
12:00 +21°C° 0.1 mm 4 mps 731 mmHg 67%
13:00 +20°C° 0.1 mm 4 mps 731 mmHg 72%
14:00 +20°C° 0.1 mm 3 mps 730 mmHg 74%
15:00 +20°C° 0.1 mm 2 mps 729 mmHg 75%
16:00 +20°C° 0.1 mm 1 mps 729 mmHg 77%
17:00 +18°C° 0.6 mm 2 mps 728 mmHg 83%
18:00 +17°C° 0.6 mm 3 mps 728 mmHg 90%
19:00 +16°C° 0.6 mm 3 mps 727 mmHg 96%
20:00 +16°C° 0.7 mm 3 mps 727 mmHg 96%
21:00 +16°C° 0.7 mm 3 mps 726 mmHg 95%
22:00 +14°C° 0.7 mm 3 mps 726 mmHg 95%
23:00 +14°C° 0.1 mm 3 mps 726 mmHg 95%
Show more

We Need Your Consent

Meteoprog and our Service Providers may store and access personal data such as cookies, device identifiers or other similar technologies on your device and process such data to personalise content and ads, as well as provide social media features and to analyse the traffic.

  • Store and/or access information on your device

    Cookies, device identifiers or other information can be stored or accessed on your device for the purposes indicated above.

  • Personalised ads and content, ad and content measurement, audience insights, and products development

    Ads and content can be personalised based on a profile. More data can be added to better personalise ads and content. Ad and content performance can be measured. Insights about the audience who saw the ads and content can be derived. Such data can be used to develop or improve user’s experience, systems and software.

By clicking ‘I Agree’ you will allow the use of indicated cookies, device identifiers, web beacons or other similar technologies. Your settings can be changed in the browser on your device.

For certain purposes, legitimate interests may be relied on, rather than consent. You can read more about this in our Privacy and Cookie Policy.